2023-001Y (55031 NORAD) Tracking and Keplerian Element Data

This shows tracking and keplerian element data for the satellite.

Feedback or suggestion? Click here.




ElementValue
Catalog55031
Name2023-001Y
Epoch Orbit169
Epoch Day13.78623661
Epoch Year2023
RAAN75.7373
Inclination97.5051
Eccentricity0.0011964
Argument of Perigee180.2719
Mean Anonmoly179.8507
Mean Motion15.12465685
Decay Rate0.00010666
L11 55031U 23001Y 23013.78623661 .00010666 00000+0 61549-3 0 9994
L22 55031 97.5051 75.7373 0011964 180.2719 179.8507 15.12465685 1690



Live tracking and technical data element details for 2023-001Y (NORAD 55031). 2023-001Y can be tracked NOW for your location showing map with azimuth and elevation plus other details from your city location.







IsCatalogInMostPopularTable: catalog: 55031, numindb: 3
Update: records affected: 1



GetName: 55031 2023-001Y

Hit Count: updated at: Tue, 07 Feb 2023 13:56:06 GMT